Overview Statistics Trail Chart Weather Telemetry Raw packets
 

This is the latest recevied weather packets stored in our database for station/object KI5QCM-13. If no packets are shown the sender has not sent any weather packets the latest 10 day(s).

<< 12 13 14 15 >>
Time Temp. Humidity Pressure Rain* Wind** Luminosity Snow
1788234024 26.67° C 61% 1014.4 hPa 0 mm - 0 W/m² -
1788233437 26.67° C 60% 1014.4 hPa 0 mm - 0 W/m² -
1788232856 26.67° C 59% 1014.1 hPa 0 mm - 0 W/m² -
1788232248 27.22° C 59% 1014.1 hPa 0 mm - 0 W/m² -
1788231672 27.22° C 58% 1013.9 hPa 0 mm - 0 W/m² -
1788231032 27.22° C 58% 1013.9 hPa 0 mm - 0 W/m² -
1788230456 27.22° C 58% 1013.9 hPa 0 mm - 0 W/m² -
1788229866 27.78° C 57% 1013.8 hPa 0 mm - 0 W/m² -
1788229224 27.22° C 57% 1013.6 hPa 0 mm - 0 W/m² -
1788228953 27.78° C 57% 1013.5 hPa 0 mm - 0 W/m² -
1788228345 28.33° C 55% 1013.4 hPa 0 mm - 0 W/m² -
1788227742 28.89° C 54% 1013.3 hPa 0 mm - 0 W/m² -
1788227160 30° C 51% 1013.3 hPa 0 mm - 0 W/m² -
1788226522 30.56° C 49% 1013.1 hPa 0 mm - 0 W/m² -
1788225943 31.11° C 48% 1013 hPa 0 mm - 0 W/m² -
1788225368 31.67° C 46% 1012.9 hPa 0 mm - 0 W/m² -
1788224728 32.22° C 45% 1012.9 hPa 0 mm - 0 W/m² -
1788224133 33.33° C 42% 1012.8 hPa 0 mm - 2 W/m² -
1788223560 33.89° C 41% 1012.8 hPa 0 mm - 7 W/m² -
1788222920 35° C 39% 1012.8 hPa 0 mm - 14 W/m² -
1788222334 35.56° C 37% 1012.8 hPa 0 mm - 22 W/m² -
1788221752 35.56° C 36% 1012.8 hPa 0 mm - 30 W/m² -
1788221176 36.11° C 36% 1012.8 hPa 0 mm - 37 W/m² -
1788220539 36.67° C 36% 1012.8 hPa 0 mm - 43 W/m² -

* Rain latest hour (hover to see other rain measurements)
** Current wind speed in m/s (hover to see current wind gust speed)